CW1074 Weather Reports


time (UTC)temp
C
wind
direction
speed
KPH
gust
KPH
rain 1hr
cm
rain 24hr
cm
rain mn
cm
humidity
%
barometer
mb
20260507055017 5 0.0 0.0 0.03 0.08 0.08 89 1015.4
20260507054016 5 0.0 0.0 0.03 0.08 0.08 89 1015.4
20260507053037 5 0.0 0.0 0.03 0.08 0.08 89 1015.4
20260507052037 5 0.0 6.4 0.00 0.05 0.05 89 1015.4
20260507051017 5 0.0 3.2 0.03 0.05 0.05 89 1015.3
20260507050016 5 0.0 0.0 0.03 0.05 0.05 89 1015.2
20260507045016 5 0.0 0.0 0.03 0.05 0.05 89 1015.1
20260507044016 5 0.0 0.0 0.03 0.05 0.05 88 1015.0
20260507043019 5 0.0 0.0 0.03 0.05 0.05 88 1014.8
20260507042016 5 0.0 0.0 0.03 0.05 0.05 87 1014.8
20260507041016 6 0.0 0.0 0.00 0.03 0.03 87 1014.7
20260507040016 6 0.0 0.0 0.00 0.03 0.03 87 1014.7
20260507035016 6 0.0 0.0 0.00 0.03 0.03 87 1014.6
20260507034016 6 0.0 0.0 0.00 0.03 0.03 86 1014.6
20260507033016 6 0.0 0.0 0.00 0.03 0.03 84 1014.4
20260507032016 6 0.0 0.0 0.00 0.03 0.03 85 1014.4
20260507031036 6 0.0 0.0 0.00 0.03 0.03 84 1014.3
20260507030016 7 0.0 0.0 0.00 0.03 0.03 81 1014.3
20260507025016 7 0.0 0.0 0.00 0.03 0.03 79 1014.3
20260507024016 7 0.0 0.0 0.00 0.03 0.03 80 1014.2
20260507023016 7 0.0 0.0 0.00 0.03 0.03 78 1014.1
20260507022016 7 0.0 0.0 0.00 0.03 0.03 77 1014.0
20260507021036 7 0.0 0.0 0.00 0.03 0.03 77 1014.0
20260507020016 7 0.0 3.2 0.00 0.03 0.03 76 1014.0
20260507015016 7 0.0 8.0 0.00 0.03 0.03 75 1013.9
20260507014016 8 0.0 6.4 0.00 0.03 0.03 73 1013.9
20260507013016 8 0.0 0.0 0.00 0.03 0.03 69 1013.8
20260507012015 8 0.0 6.4 0.00 0.03 0.03 68 1013.8
20260507011016 7 270 1.6 8.0 0.00 0.03 0.03 68 1013.9
20260507010015 7 0.0 0.0 0.00 0.03 0.03 73 1013.8
20260507005015 7 0.0 3.2 0.00 0.03 0.03 73 1013.7
20260507004015 7 0.0 0.0 0.00 0.03 0.03 73 1013.6
20260507003015 7 0.0 0.0 0.00 0.03 0.03 73 1013.6
20260507002015 7 293 1.6 8.0 0.00 0.03 0.03 73 1013.5
20260507001018 8 0.0 4.8 0.00 0.03 0.03 73 1013.5
20260507000017 7 0.0 0.0 0.00 0.03 0.03 72 1013.5
20260506235018 7 0.0 0.0 0.00 0.03 0.03 73 1013.4
20260506234017 7 0.0 0.0 0.00 0.03 0.03 74 1013.4
20260506233017 7 0.0 0.0 0.00 0.03 0.03 74 1013.3
20260506232017 7 293 1.6 8.0 0.00 0.03 0.03 73 1013.3
20260506231017 7 0.0 0.0 0.00 0.03 0.03 74 1013.1
20260506230037 7 225 1.6 14.5 0.00 0.03 0.03 75 1013.1
20260506225017 7 270 3.2 9.7 0.00 0.03 0.03 73 1013.0
20260506224017 7 248 4.8 12.9 0.00 0.03 0.03 72 1013.0
20260506223017 8 0.0 0.0 0.00 0.03 0.03 71 1012.8
20260506222017 8 203 1.6 6.4 0.00 0.03 0.03 67 1012.9
20260506221017 8 0.0 0.0 0.00 0.03 0.03 66 1012.8
20260506220017 8 225 1.6 8.0 0.00 0.03 0.03 67 1012.7
20260506215017 8 225 1.6 8.0 0.00 0.03 0.03 68 1012.7
20260506214037 8 248 3.2 14.5 0.00 0.03 0.03 67 1012.6
20260506213017 8 248 4.8 9.7 0.00 0.03 0.03 66 1012.5
20260506212016 8 248 3.2 8.0 0.00 0.03 0.03 66 1012.4
20260506211037 8 248 3.2 6.4 0.00 0.03 0.03 68 1012.3
20260506210037 8 0.0 0.0 0.00 0.03 0.03 66 1012.3
20260506205036 8 0.0 0.0 0.00 0.03 0.03 69 1012.2
20260506204017 8 0.0 0.0 0.00 0.03 0.03 69 1012.1
20260506203017 8 248 1.6 4.8 0.00 0.03 0.03 70 1012.1
20260506202017 7 248 1.6 6.4 0.00 0.03 0.03 71 1012.1
20260506201037 7 248 3.2 6.4 0.00 0.03 0.03 71 1012.0
20260506200016 7 248 4.8 6.4 0.00 0.03 0.03 71 1012.0
20260506195016 8 135 1.6 4.8 0.00 0.03 0.03 70 1012.0
20260506194016 8 0.0 4.8 0.00 0.03 0.03 69 1011.9
20260506193016 8 135 1.6 6.4 0.00 0.03 0.03 70 1011.9
20260506192016 7 0.0 4.8 0.00 0.03 0.03 71 1011.8
20260506191016 7 0.0 1.6 0.00 0.03 0.03 71 1011.9
20260506190018 7 0.0 0.0 0.00 0.03 0.03 73 1011.8
20260506185016 7 0.0 0.0 0.00 0.03 0.03 72 1011.8
20260506184016 7 0.0 0.0 0.00 0.03 0.03 75 1011.9
20260506183016 6 0.0 0.0 0.00 0.03 0.03 75 1011.8
20260506182016 6 0.0 0.0 0.00 0.03 0.03 76 1011.8
20260506181016 6 0.0 0.0 0.00 0.03 0.03 79 1011.7
20260506180016 6 0.0 4.8 0.00 0.03 0.03 78 1011.7
20260506175016 5 0.0 0.0 0.00 0.03 0.03 81 1011.6
20260506174036 5 0.0 0.0 0.00 0.03 0.03 81 1011.7
20260506173016 5 0.0 0.0 0.00 0.03 0.03 84 1011.6
20260506172056 5 0.0 0.0 0.03 0.03 0.03 86 1011.6
20260506171016 5 0.0 0.0 0.03 0.03 0.03 88 1011.5
20260506170016 5 0.0 0.0 0.03 0.03 0.03 89 1011.5
20260506165036 4 0.0 0.0 0.03 0.03 0.03 89 1011.5
20260506164016 4 0.0 0.0 0.03 0.03 0.03 90 1011.4
20260506163016 4 0.0 0.0 0.03 0.03 0.03 90 1011.3
20260506162016 3 0.0 0.0 0.00 0.00 0.00 90 1011.2
20260506161016 3 0.0 0.0 0.00 0.00 0.00 90 1011.3
20260506160016 3 0.0 0.0 0.00 0.00 0.00 90 1011.2
20260506155015 3 0.0 0.0 0.00 0.00 0.00 91 1011.1
20260506154016 3 0.0 0.0 0.00 0.00 0.00 90 1011.1
20260506153016 3 0.0 0.0 0.00 0.00 0.00 90 1011.1
20260506152015 2 0.0 0.0 0.00 0.00 0.00 90 1011.2
20260506151016 2 0.0 0.0 0.00 0.00 0.00 90 1011.1
20260506150016 2 0.0 0.0 0.00 0.00 0.00 89 1011.1
20260506145015 2 0.0 0.0 0.00 0.00 0.00 89 1011.1
20260506144038 2 0.0 0.0 0.00 0.00 0.00 88 1011.0
20260506143017 2 0.0 0.0 0.00 0.00 0.00 88 1011.0
20260506142017 2 0.0 0.0 0.00 0.00 0.00 87 1011.0
20260506141017 2 0.0 0.0 0.00 0.00 0.00 87 1011.0
20260506140017 2 0.0 0.0 0.00 0.00 0.00 92 1011.0
20260506135017 2 0.0 0.0 0.00 0.00 0.00 86 1011.0
20260506134139 2 0.0 0.0 0.00 0.00 0.00 86 1011.0
20260506133017 3 0.0 0.0 0.00 0.00 0.00 86 1011.0
20260506132017 3 0.0 0.0 0.00 0.00 0.00 85 1010.9
20260506131038 3 0.0 0.0 0.00 0.00 0.00 84 1010.9
20260506130017 3 0.0 0.0 0.00 0.00 0.00 82 1011.0
20260506125017 4 0.0 0.0 0.00 0.00 0.00 80 1011.0
20260506124017 4 0.0 0.0 0.00 0.00 0.00 78 1011.0
20260506123017 4 0.0 0.0 0.00 0.00 0.00 76 1010.9
20260506122017 5 0.0 0.0 0.00 0.00 0.00 75 1010.8
20260506121017 5 0.0 0.0 0.00 0.00 0.00 75 1010.7
20260506120017 5 0.0 0.0 0.00 0.00 0.00 74 1010.7
20260506115017 5 0.0 0.0 0.00 0.00 0.00 74 1010.7
20260506114017 5 0.0 0.0 0.00 0.00 0.00 73 1010.6
20260506113017 5 0.0 0.0 0.00 0.00 0.00 72 1010.6
20260506112017 5 0.0 3.2 0.00 0.00 0.00 71 1010.5
20260506111017 5 293 1.6 4.8 0.00 0.00 0.00 70 1010.4
20260506110037 5 315 1.6 4.8 0.00 0.00 0.00 70 1010.4
20260506105037 4 0.0 0.0 0.00 0.00 0.00 72 1010.2
20260506104017 5 0.0 0.0 0.00 0.00 0.00 71 1010.0
20260506103037 5 0.0 0.0 0.00 0.00 0.00 70 1009.9
20260506102017 5 0.0 0.0 0.00 0.00 0.00 69 1009.8
20260506101016 5 0.0 0.0 0.00 0.00 0.00 69 1009.7
20260506100016 5 0.0 0.0 0.00 0.00 0.00 69 1009.6
20260506095037 5 0.0 0.0 0.00 0.00 0.00 69 1009.5
20260506094017 5 0.0 0.0 0.00 0.00 0.00 69 1009.4
20260506093017 5 0.0 0.0 0.00 0.00 0.00 70 1009.5
20260506092016 5 0.0 0.0 0.00 0.00 0.00 69 1009.4
20260506091016 4 0.0 0.0 0.00 0.00 0.00 69 1009.2
20260506090017 5 0.0 0.0 0.00 0.00 0.00 69 1009.2
20260506085016 5 0.0 0.0 0.00 0.00 0.00 69 1009.1
20260506084016 5 0.0 0.0 0.00 0.00 0.00 69 1009.0
20260506083017 5 0.0 0.0 0.00 0.00 0.00 70 1008.8
20260506082016 5 0.0 0.0 0.00 0.00 0.00 69 1008.9
20260506081016 5 0.0 0.0 0.00 0.00 0.00 69 1008.7
20260506073017 5 0.0 0.0 0.00 0.00 0.00 67 1008.5
20260506072017 6 0.0 0.0 0.00 0.00 0.00 65 1008.4
20260506071017 6 0.0 0.0 0.00 0.00 0.00 65 1008.3
20260506062017 7 0.0 0.0 0.00 0.00 0.00 62 1007.8
20260506061036 7 0.0 4.8 0.00 0.00 0.00 62 1007.7